[[{"header":{"parameterUnit":"m.s-1","parameterCategory":1,"la1":30.2991,"la2":30.254,"lo1":-89.0895,"lo2":-89.0444,"dy":0.0017,"dx":0.0017,"nx":28,"ny":28,"refTime":"2023-09-09T09:00:00:Z","depth":0,"parameterNumber":2,"parameterNumberName":"U-component_of_WINDS"},"data":[0,0,0,0,0,0,0,0,0,0,0,0,0,0,0,0,0,0,0,0,0,0,0,0,0,0,0,0,0,0,0,0,0,0,0,0,0,0,0,0,0,0,0,0,0,0,0,0,0,0,0,0,0,0,0,0,0,0,0.509,0.5092,0,0.5299,0.5301,0.5304,0.5357,0.5355,0.5354,0.5353,0.5572,0.5578,0.5585,0,0,0,0,0,0,0,0,0,0,0,0,0,0.474,0.4747,0.509,0.5092,0.5095,0.5299,0.5302,0.5304,0.5357,0.5355,0.5353,0.5352,0.5569,0.5578,0.5586,0,0,0,0,0,0,0,0,0,0,0,0,0,0.4915,0.4749,0.5089,0.5145,0.5153,0.5298,0.5302,0.5305,0.5357,0.5355,0.5353,0.5351,0.5566,0.5577,0.5587,0.5693,0,0,0.562,0.5624,0,0,0,0,0,0,0,0,0.4905,0.4928,0.5135,0.5142,0.515,0.53,0.5259,0.5435,0.5358,0.528,0.5353,0.535,0.5483,0.55,0.5544,0.5703,0.5713,0.5621,0.5627,0.5632,0.5635,0,0,0,0,0,0,0,0.4893,0.4919,0.5173,0.5138,0.5147,0.5162,0.5184,0.5292,0.539,0.5286,0.5291,0.5314,0.5487,0.5534,0.555,0.5716,0.562,0.563,0.5636,0.5641,0.5974,0.5976,0,0,0,0,0,0,0.487,0.4909,0.5166,0.5179,0.502,0.517,0.5195,0.5254,0.5389,0.5408,0.5316,0.5316,0.5517,0.5537,0.5558,0.5691,0.5632,0.5642,0.5648,0.5971,0.5974,0.5977,0,0,0,0,0,0,0.4863,0.4893,0.5158,0.5045,0.508,0.5178,0.5243,0.5259,0.5306,0.5411,0.543,0.5345,0.5516,0.5543,0.5659,0.5699,0.5646,0.5656,0.5969,0.5972,0.5976,0.5958,0,0,0,0,0,0,0.4853,0.489,0.493,0.5046,0.5086,0.5254,0.5246,0.5264,0.5323,0.5326,0.5444,0.5462,0.5516,0.5643,0.5669,0.5713,0.5664,0.5965,0.597,0.5975,0.5956,0.5961,0.5965,0,0,0,0,0,0.484,0.4917,0.4932,0.4962,0.5138,0.5256,0.5279,0.5339,0.5326,0.5368,0.5436,0.5458,0.569,0.5654,0.5685,0.5732,0.5963,0.5969,0.5974,0.5954,0.596,0.5965,0,0,0,0,0,0,0.4806,0.4934,0.4951,0.5068,0.515,0.5265,0.5319,0.5344,0.5433,0.5431,0.5503,0.553,0.5641,0.5699,0.5656,0.5842,0.5827,0.5839,0.5801,0.5808,0.5813,0.5797,0.5673,0,0,0,0,0,0.4811,0.4895,0.5003,0.5096,0.5137,0.5221,0.5275,0.5313,0.5403,0.5438,0.5515,0.5602,0.5695,0.5754,0.5846,0.5964,0.5992,0.6012,0.6017,0.602,0.603,0.6098,0.6109,0.5996,0.5996,0.5995,0,0,0.4825,0.4905,0.4954,0.5091,0.516,0.5247,0.525,0.5342,0.5407,0.5453,0.5567,0.5626,0.5728,0.5846,0.5902,0.5897,0.6067,0.6027,0.6029,0.6038,0.6105,0.6115,0.6125,0.5999,0.5999,0.5998,0,0,0.4893,0.4962,0.5047,0.5115,0.5219,0.5274,0.5294,0.5406,0.5446,0.5561,0.5598,0.5678,0.5836,0.5907,0.5964,0.606,0.6084,0.6088,0.6114,0.6179,0.6188,0.6196,0.6231,0.6243,0.6097,0.6097,0.6097,0,0.4897,0.5028,0.5088,0.5178,0.5238,0.5282,0.537,0.5434,0.5562,0.5603,0.5596,0.5795,0.5867,0.6003,0.6026,0.607,0.6097,0.6075,0.6181,0.619,0.6199,0.6233,0.6246,0.6097,0.6097,0.6097,0.6097,0,0.5028,0.5118,0.5175,0.5296,0.5363,0.5451,0.5526,0.5587,0.562,0.5676,0.5794,0.5882,0.5991,0.6027,0.606,0.6168,0.6162,0.6167,0.6153,0.6209,0.6242,0.6256,0.6097,0.6097,0.6097,0.6097,0,0,0.5081,0.5234,0.5254,0.531,0.5427,0.5499,0.559,0.5696,0.5747,0.5834,0.5913,0.6046,0.6052,0.6116,0.6159,0.6216,0.6287,0.6215,0.6218,0.6226,0.6412,0.6407,0.6422,0.6303,0.6306,0.6308,0.6404,0,0.5165,0.5327,0.5384,0.5519,0.5603,0.5646,0.5726,0.5807,0.5863,0.5944,0.6006,0.6099,0.6099,0.6139,0.6197,0.6266,0.6326,0.626,0.6379,0.6383,0.6353,0.6439,0.6435,0.652,0.6417,0.6419,0.6421,0,0.5284,0.5371,0.5513,0.562,0.5658,0.5728,0.5831,0.5907,0.6001,0.6038,0.611,0.6148,0.6247,0.6226,0.6364,0.6318,0.637,0.6411,0.6416,0.643,0.6405,0.6456,0.6549,0.6562,0.6442,0.644,0.6439,0,0.5309,0.5462,0.5567,0.5614,0.5741,0.579,0.5845,0.5937,0.5997,0.6087,0.6127,0.6228,0.6283,0.6361,0.6426,0.6405,0.6559,0.6543,0.6593,0.6591,0.6624,0.6621,0.6727,0.6656,0.6656,0.6656,0.6656,0,0.5397,0.5482,0.558,0.5645,0.5743,0.5808,0.5904,0.5962,0.6044,0.6122,0.6166,0.6239,0.632,0.6404,0.6456,0.6562,0.6587,0.662,0.6633,0.6617,0.6613,0.6653,0.6649,0.6659,0.6659,0.6658,0.6657,0,0.5441,0.551,0.5628,0.5738,0.5768,0.5835,0.5931,0.5996,0.6053,0.6152,0.6179,0.627,0.6371,0.6443,0.6574,0.6609,0.6724,0.6736,0.6691,0.6698,0.6744,0.6738,0.6879,0.6902,0.6815,0.6816,0.6816,0,0.5493,0.556,0.5677,0.5731,0.5786,0.5874,0.5935,0.6003,0.6066,0.6178,0.623,0.6334,0.642,0.658,0.6659,0.6759,0.6775,0.6817,0.679,0.6772,0.6776,0.6772,0.6779,0.6821,0.6822,0.6822,0.6823,0,0.5577,0.5608,0.5694,0.5792,0.5863,0.5944,0.6026,0.6069,0.6151,0.6219,0.6322,0.6389,0.6522,0.6625,0.6733,0.6793,0.6822,0.683,0.6847,0.6832,0.6803,0.682,0.6703,0.6827,0.6827,0.6826,0.6826,0.6826,0.5628,0.5689,0.5781,0.5876,0.5944,0.6019,0.6086,0.6151,0.6237,0.635,0.6385,0.6492,0.6586,0.6733,0.6794,0.688,0.6878,0.6903,0.6909,0.6914,0.6914,0.6788,0.69,0.69,0.69,0.69,0.69,0,0.5715,0.5776,0.5862,0.5974,0.6049,0.6068,0.616,0.6221,0.6314,0.6398,0.6482,0.6601,0.6701,0.6787,0.6891,0.6944,0.696,0.6969,0.6966,0.698,0.6909,0.6884,0.6954,0.6954,0.6954,0.6954,0.6954,0.6954,0.5769,0.5874,0.5916,0.6056,0.6117,0.6221,0.6272,0.6342,0.6409,0.6539,0.6622,0.6677,0.6762,0.6873,0.6966,0.6989,0.7026,0.7032,0.7058,0.6991,0.6985,0.6978,0.6955,0.7039,0.7039,0.7122,0.7123,0.7123]},{"header":{"parameterUnit":"m.s-1","parameterCategory":1,"la1":30.2991,"la2":30.254,"lo1":-89.0895,"lo2":-89.0444,"dy":0.0017,"dx":0.0017,"nx":28,"ny":28,"refTime":"2023-09-09T09:00:00:Z","depth":0,"parameterNumber":3,"parameterNumberName":"V-component_of_WINDS"},"data":[0,0,0,0,0,0,0,0,0,0,0,0,0,0,0,0,0,0,0,0,0,0,0,0,0,0,0,0,0,0,0,0,0,0,0,0,0,0,0,0,0,0,0,0,0,0,0,0,0,0,0,0,0,0,0,0,0,0,-0.6434,-0.6435,0,-0.656,-0.6562,-0.6563,-0.6679,-0.668,-0.6681,-0.6683,-0.681,-0.6812,-0.6814,0,0,0,0,0,0,0,0,0,0,0,0,0,-0.6291,-0.6293,-0.6434,-0.6436,-0.6437,-0.656,-0.6562,-0.6564,-0.6678,-0.668,-0.6682,-0.6683,-0.6809,-0.6812,-0.6814,0,0,0,0,0,0,0,0,0,0,0,0,0,-0.6379,-0.6294,-0.6434,-0.6509,-0.6517,-0.656,-0.6562,-0.6564,-0.6678,-0.668,-0.6682,-0.6684,-0.6808,-0.6811,-0.6814,-0.6792,0,0,-0.6824,-0.6825,0,0,0,0,0,0,0,0,-0.6374,-0.6384,-0.6497,-0.6504,-0.6513,-0.6606,-0.6558,-0.664,-0.6677,-0.6617,-0.6683,-0.6685,-0.674,-0.6749,-0.6768,-0.6797,-0.6803,-0.6824,-0.6826,-0.6827,-0.6828,0,0,0,0,0,0,0,-0.6368,-0.6379,-0.6484,-0.6498,-0.6508,-0.6537,-0.6551,-0.6574,-0.6665,-0.6622,-0.6631,-0.6645,-0.6745,-0.6765,-0.6772,-0.6805,-0.6824,-0.6827,-0.6829,-0.683,-0.6824,-0.6822,0,0,0,0,0,0,-0.635,-0.6373,-0.648,-0.6488,-0.6447,-0.6538,-0.6554,-0.6574,-0.6665,-0.6681,-0.6643,-0.6649,-0.6758,-0.6768,-0.6777,-0.6757,-0.6827,-0.683,-0.6832,-0.6826,-0.6824,-0.6821,0,0,0,0,0,0,-0.6347,-0.6359,-0.6475,-0.6433,-0.645,-0.6538,-0.6559,-0.6575,-0.6595,-0.6681,-0.6697,-0.6646,-0.676,-0.6772,-0.6788,-0.6763,-0.6832,-0.6835,-0.6828,-0.6825,-0.6822,-0.6717,0,0,0,0,0,0,-0.6342,-0.6357,-0.6349,-0.6432,-0.6452,-0.6483,-0.6558,-0.6576,-0.6601,-0.6611,-0.6688,-0.6703,-0.6763,-0.6782,-0.6791,-0.6769,-0.6837,-0.6831,-0.6827,-0.6823,-0.6723,-0.671,-0.67,0,0,0,0,0,-0.6337,-0.6313,-0.6348,-0.636,-0.6444,-0.6482,-0.6493,-0.6563,-0.6598,-0.6591,-0.6646,-0.6701,-0.6765,-0.6783,-0.6793,-0.6772,-0.6833,-0.6828,-0.6824,-0.6728,-0.6713,-0.67,0,0,0,0,0,0,-0.6223,-0.6325,-0.6365,-0.6368,-0.6415,-0.6501,-0.6494,-0.6545,-0.6583,-0.659,-0.6675,-0.6692,-0.6698,-0.6737,-0.6755,-0.6756,-0.6806,-0.6803,-0.673,-0.6716,-0.6705,-0.6695,-0.684,0,0,0,0,0,-0.6199,-0.6221,-0.6309,-0.6303,-0.6325,-0.6405,-0.6424,-0.6475,-0.6527,-0.6547,-0.6604,-0.6652,-0.6684,-0.6702,-0.6735,-0.6729,-0.6748,-0.672,-0.6708,-0.6698,-0.6695,-0.6696,-0.6684,-0.6806,-0.6806,-0.6807,0,0,-0.6148,-0.6207,-0.6215,-0.6282,-0.6325,-0.6346,-0.6421,-0.644,-0.6457,-0.655,-0.6569,-0.6611,-0.6671,-0.6676,-0.6681,-0.6708,-0.6666,-0.6693,-0.6684,-0.6686,-0.669,-0.6678,-0.6668,-0.6803,-0.6804,-0.6804,0,0,-0.6067,-0.6113,-0.6114,-0.6156,-0.622,-0.6274,-0.6274,-0.6353,-0.6385,-0.6405,-0.6476,-0.6497,-0.6549,-0.6589,-0.6616,-0.6552,-0.6604,-0.6561,-0.65,-0.65,-0.6491,-0.6483,-0.646,-0.6451,-0.6557,-0.6557,-0.6557,0,-0.5995,-0.6031,-0.6107,-0.6123,-0.6151,-0.6237,-0.6239,-0.6276,-0.6347,-0.6364,-0.6394,-0.6462,-0.6508,-0.6524,-0.6509,-0.6528,-0.6531,-0.6552,-0.6486,-0.6479,-0.6472,-0.6452,-0.6443,-0.6551,-0.6552,-0.6552,-0.6553,0,-0.594,-0.5964,-0.5957,-0.6025,-0.6052,-0.606,-0.6138,-0.6156,-0.6204,-0.6255,-0.6275,-0.6334,-0.6381,-0.6389,-0.6435,-0.6412,-0.6427,-0.647,-0.6523,-0.6454,-0.6436,-0.6429,-0.6543,-0.6545,-0.6547,-0.6548,0,0,-0.5789,-0.5902,-0.5898,-0.593,-0.6009,-0.6028,-0.6041,-0.6089,-0.6103,-0.615,-0.6163,-0.6205,-0.6247,-0.6277,-0.633,-0.633,-0.6276,-0.6374,-0.6376,-0.6354,-0.6255,-0.6221,-0.6211,-0.6311,-0.631,-0.6309,-0.625,0,-0.5721,-0.5749,-0.582,-0.5826,-0.5849,-0.5933,-0.5944,-0.5994,-0.6042,-0.6068,-0.6122,-0.6151,-0.6203,-0.6222,-0.6226,-0.6282,-0.6257,-0.6287,-0.6324,-0.6324,-0.6306,-0.6202,-0.6166,-0.6107,-0.6243,-0.6242,-0.6241,0,-0.5644,-0.5687,-0.5696,-0.5775,-0.5788,-0.5797,-0.5847,-0.5871,-0.5929,-0.5965,-0.6,-0.6058,-0.6076,-0.6125,-0.6152,-0.6171,-0.619,-0.622,-0.622,-0.6225,-0.6278,-0.6204,-0.609,-0.6081,-0.6231,-0.6232,-0.6233,0,-0.5534,-0.5594,-0.5608,-0.5633,-0.5725,-0.573,-0.5768,-0.5829,-0.5853,-0.5897,-0.5914,-0.5959,-0.5983,-0.6017,-0.6086,-0.6115,-0.6105,-0.616,-0.6135,-0.6133,-0.6128,-0.6127,-0.6015,-0.6141,-0.6141,-0.6141,-0.6141,0,-0.545,-0.5452,-0.556,-0.5568,-0.5573,-0.5655,-0.5658,-0.5704,-0.5757,-0.5776,-0.5851,-0.5867,-0.5958,-0.5984,-0.6039,-0.6053,-0.6063,-0.6092,-0.6106,-0.6085,-0.6081,-0.6099,-0.6104,-0.6139,-0.6139,-0.614,-0.614,0,-0.5327,-0.5399,-0.5419,-0.5506,-0.5528,-0.5528,-0.5602,-0.5613,-0.5667,-0.569,-0.57,-0.5783,-0.5818,-0.5891,-0.5946,-0.5983,-0.5984,-0.601,-0.5965,-0.5974,-0.5945,-0.5946,-0.5839,-0.5829,-0.596,-0.5959,-0.5958,0,-0.5268,-0.5272,-0.536,-0.5378,-0.5414,-0.5443,-0.5469,-0.555,-0.5574,-0.5641,-0.5644,-0.5686,-0.5724,-0.5776,-0.5842,-0.5884,-0.5912,-0.5871,-0.5918,-0.5897,-0.5911,-0.591,-0.5911,-0.586,-0.5858,-0.5857,-0.5855,0,-0.5157,-0.5193,-0.5228,-0.5276,-0.5305,-0.5346,-0.5392,-0.5403,-0.5494,-0.5517,-0.5555,-0.5584,-0.5642,-0.5682,-0.5735,-0.5775,-0.583,-0.584,-0.5837,-0.5815,-0.5789,-0.5803,-0.5936,-0.5842,-0.5843,-0.5844,-0.5845,-0.5846,-0.5065,-0.5073,-0.5136,-0.5173,-0.5216,-0.5257,-0.5272,-0.5328,-0.5361,-0.5415,-0.5461,-0.5494,-0.5554,-0.5631,-0.5668,-0.5695,-0.5722,-0.5717,-0.5716,-0.5713,-0.5704,-0.5785,-0.5705,-0.5706,-0.5706,-0.5707,-0.5707,0,-0.4957,-0.5003,-0.5036,-0.5098,-0.5127,-0.5178,-0.5232,-0.5252,-0.5281,-0.5333,-0.5369,-0.5413,-0.5453,-0.5522,-0.5568,-0.5577,-0.5604,-0.5586,-0.5586,-0.5595,-0.5677,-0.5676,-0.5564,-0.5564,-0.5564,-0.5564,-0.5564,-0.5564,-0.4905,-0.4921,-0.4965,-0.5004,-0.505,-0.5084,-0.511,-0.5149,-0.519,-0.5236,-0.527,-0.5316,-0.5375,-0.5426,-0.5465,-0.5485,-0.5498,-0.5472,-0.5499,-0.5575,-0.5589,-0.5601,-0.56,-0.5475,-0.5474,-0.5415,-0.5414,-0.5414]}]]